STARLINK-36945, 68050

Orbit data source: Space-Track

STARLINK-36945, 68050 is a payload satellite owned by SpaceX/Seattle (US) in LEO that was launched on Mon, 02 Mar 2026 UTC via an FALCON 9 launch vehicle from the Air Force Eastern Test Range (AFETR). Payload-class satellites include a variety of spacecraft equipped with specific instruments for various scientific and technological missions. These include communications satellites like Starlink; space stations such as the ISS; scientific satellites like the Hubble; Earth observation satellites from companies like Planet Labs, Umbra, and HawkEye 360; GPS; miniature CubeSats for education and research; and military/defense satellites.

Loading next visibility...
Identifier
68050, 2026-041L
Orbit
LEO
Country
Flag of USUS
Related business
Manufacturer
SpaceX/Seattle
Mission
Operational Commercial Communications
Bus & Motor
STARLINK V2MO, Unknown motor
Mass
575 kg wet, ~530 kg dry
Launch date (UTC)
2026-03-02 (4 months ago)
Launch vehicle
FALCON 9
Launch site
Air Force Eastern Test Range (AFETR)
Object type
Payload
Rocket body
Debris
Shape & HBR
Box + 2 Pan, 17.7 m
Radar Cross Section
36.964 m², Large (>1 m²)

Expand to show TLE details & history
Last TLE update: 1 day ago

TLE from 1 day ago
0 STARLINK-36945
1 68050U 26041L   26170.60175794  .00033989  00000-0  10115-2 0  9999
2 68050  53.1605 294.2178 0003046  79.1692 280.9654 15.34431646 17022
Epoch: 2026-06-19T14:26Z
TLE epoch observation values (Epoch: 2026-06-19T14:26:31.886Z)
Latitude
0.00006°
Longitude
169.7566°
Altitude
463.115 km
Speed
7.636 km/s
True Right ascension
19h 36m 52s
True Declination
0° 00' 00"
Sunlit
Object was in full shadow at epoch
Visualization orbit readout
Latitude
Unknown
Longitude
Unknown
Altitude
Unknown
Speed
Unknown
Apparent Right ascension
Unknown
Apparent Declination
Unknown
Sunlit
N/A
Visualization observer readout
Local Sidereal Time
07:19:42
Azimuth
Unknown
Elevation
Unknown
Doppler factor
Unknown
Orbital elements
Apogee altitude
464.95 km
Perigee altitude
460.782 km
Semi-major axis
6,841.003 km
Eccentricity
0.0003
Inclination
53.1605°
RAAN
294.2178°
Arg. of periapsis
79.1692°
True anomaly
280.93113°
Mean anomaly
280.9654°
Eccentric anomaly
280.94827°
Mean motion
3.83587 °/min
Orbital period
93.85 mins
BSTAR
0.0010115
Loading maneuver chart data...
Computing Atmospheric mass density...
Loading historical data...
Loading historical data...
Loading historical data...
Loading historical data...
Loading historical data...
Loading historical data...
Loading historical data...

Documentation

Showing up to 5 results
|